Weather History for Clovis, NM

Change the Weather History Date:

Thursday, July 25, 2013

  Actual Average Record
Temperature  
Mean Temperature 75 °F -  
Max Temperature 86 °F 90 °F 106 °F (1917)
Min Temperature 64 °F 63 °F 55 °F (1911)
Cooling Degree Days 10    
Growing Degree Days 25 (Base 50)    
Moisture  
Dew Point 59 °F    
Average Humidity 63    
Maximum Humidity 83    
Minimum Humidity 37    
Precipitation  
Precipitation 0.02 in - - ()
Sea Level Pressure  
Sea Level Pressure 30.20 in    
Wind  
Wind Speed 8 mph (SSW)    
Max Wind Speed 20 mph    
Max Gust Speed 25 mph    
Visibility 10 miles    
Events      
Averages and records for this station are not official NWS values.
T = Trace of Precipitation, MM = Missing Value Source: NWS Daily Summary

Daily Weather History Graph

Daily Weather History Graph

Search for Another Location

Airport:

Trip Planner

Search our weather history database for the weather conditions in past years. The results will help you decide how hot, cold, wet, or windy it might be!

Date:

Astronomy

Jul. 25, 2013 Rise Set
Actual Time 5:58 AM MDT 7:59 PM MDT
Civil Twilight 5:30 AM MDT 8:27 PM MDT
Nautical Twilight 4:55 AM MDT 9:01 PM MDT
Astronomical Twilight 4:19 AM MDT 9:37 PM MDT
Moon 9:54 PM MDT (7/25) 9:18 AM MDT (7/25)
Length of Visible Light 14h 57m
Length of Day
14h 01m
Waning Gibbous, 88% of the Moon is Illuminated
Jul 25
Waning Gibbous
Jul 29
Last Quarter
Aug 6
New
Aug 14
First Quarter
Aug 20
Full

Hourly Weather History & Observations

Time (MDT) Temp. Heat Index Dew Point Humidity Pressure Visibility Wind Dir Wind Speed Gust Speed Precip Events Conditions
12:15 AM 66.2 °F - 57.2 °F 73% 30.22 in 10.0 mi North 11.5 mph - N/A   Mostly Cloudy
12:35 AM 66.2 °F - 57.2 °F 73% 30.22 in 10.0 mi North 6.9 mph - N/A   Mostly Cloudy
12:55 AM 68.0 °F - 57.2 °F 68% 30.21 in 10.0 mi North 8.1 mph - N/A   Mostly Cloudy
1:15 AM 66.2 °F - 57.2 °F 73% 30.22 in 10.0 mi NNE 4.6 mph - N/A   Partly Cloudy
1:35 AM 66.2 °F - 57.2 °F 73% 30.22 in 10.0 mi NNE 8.1 mph - N/A   Clear
1:55 AM 66.2 °F - 57.2 °F 73% 30.23 in 10.0 mi North 6.9 mph - N/A   Partly Cloudy
2:15 AM 66.2 °F - 57.2 °F 73% 30.23 in 10.0 mi NNE 5.8 mph - N/A   Mostly Cloudy
2:35 AM 66.2 °F - 57.2 °F 73% 30.23 in 10.0 mi North 5.8 mph - N/A   Overcast
2:55 AM 66.2 °F - 57.2 °F 73% 30.23 in 10.0 mi NNW 5.8 mph - N/A   Mostly Cloudy
3:15 AM 66.2 °F - 57.2 °F 73% 30.23 in 10.0 mi NNW 6.9 mph - N/A   Mostly Cloudy
3:35 AM 66.2 °F - 57.2 °F 73% 30.26 in 10.0 mi West 10.4 mph - 0.01 in   Overcast
3:55 AM 64.4 °F - 57.2 °F 77% 30.25 in 10.0 mi NNW 5.8 mph - 0.02 in   Mostly Cloudy
4:15 AM 64.4 °F - 59.0 °F 83% 30.22 in 10.0 mi North 9.2 mph - N/A   Overcast
4:35 AM 64.4 °F - 57.2 °F 77% 30.22 in 10.0 mi NW 4.6 mph - N/A   Partly Cloudy
4:55 AM 64.4 °F - 59.0 °F 83% 30.23 in 10.0 mi ESE 3.5 mph - N/A   Clear
5:15 AM 64.4 °F - 57.2 °F 77% 30.23 in 10.0 mi North 3.5 mph - N/A   Clear
5:35 AM 64.4 °F - 59.0 °F 83% 30.24 in 10.0 mi North 3.5 mph - N/A   Clear
5:55 AM 64.4 °F - 59.0 °F 83% 30.24 in 10.0 mi Calm Calm - N/A   Mostly Cloudy
6:15 AM 66.2 °F - 59.0 °F 78% 30.25 in 10.0 mi Calm Calm - N/A   Scattered Clouds
6:35 AM 66.2 °F - 57.2 °F 73% 30.26 in 10.0 mi Calm Calm - N/A   Partly Cloudy
6:55 AM 66.2 °F - 60.8 °F 83% 30.25 in 10.0 mi West 3.5 mph - N/A   Partly Cloudy
7:15 AM 66.2 °F - 59.0 °F 78% 30.24 in 10.0 mi Calm Calm - N/A   Clear
7:35 AM 66.2 °F - 60.8 °F 83% 30.22 in 10.0 mi ENE 4.6 mph - N/A   Clear
7:55 AM 68.0 °F - 57.2 °F 68% 30.23 in 10.0 mi NW 3.5 mph - N/A   Clear
8:15 AM 68.0 °F - 59.0 °F 73% 30.22 in 10.0 mi East 4.6 mph - N/A   Clear
8:35 AM 69.8 °F - 59.0 °F 68% 30.22 in 10.0 mi ESE 5.8 mph - N/A   Clear
8:55 AM 69.8 °F - 60.8 °F 73% 30.23 in 10.0 mi ESE 8.1 mph - N/A   Clear
9:15 AM 69.8 °F - 62.6 °F 78% 30.23 in 10.0 mi SE 8.1 mph - N/A   Clear
9:35 AM 69.8 °F - 62.6 °F 78% 30.23 in 10.0 mi SE 8.1 mph - N/A   Partly Cloudy
9:55 AM 71.6 °F - 62.6 °F 73% 30.24 in 10.0 mi SE 8.1 mph - N/A   Scattered Clouds
10:15 AM 71.6 °F - 62.6 °F 73% 30.24 in 10.0 mi SSE 9.2 mph - N/A   Mostly Cloudy
10:35 AM 73.4 °F - 62.6 °F 69% 30.25 in 10.0 mi SSE 10.4 mph - N/A   Partly Cloudy
10:55 AM 73.4 °F - 62.6 °F 69% 30.24 in 10.0 mi South 10.4 mph - N/A   Clear
11:15 AM 73.4 °F - 62.6 °F 69% 30.24 in 10.0 mi SSE 9.2 mph - N/A   Scattered Clouds
11:35 AM 75.2 °F - 64.4 °F 69% 30.24 in 10.0 mi SSE 10.4 mph - N/A   Scattered Clouds
11:55 AM 75.2 °F - 64.4 °F 69% 30.24 in 10.0 mi SSE 11.5 mph - N/A   Scattered Clouds
12:15 PM 75.2 °F - 62.6 °F 65% 30.24 in 10.0 mi South 10.4 mph - N/A   Mostly Cloudy
12:35 PM 75.2 °F - 60.8 °F 61% 30.23 in 10.0 mi South 13.8 mph - N/A   Overcast
12:55 PM 78.8 °F - 60.8 °F 54% 30.23 in 10.0 mi South 12.7 mph 18.4 mph N/A   Scattered Clouds
1:15 PM 78.8 °F - 60.8 °F 54% 30.23 in 10.0 mi SW 13.8 mph 19.6 mph N/A   Clear
1:35 PM 78.8 °F - 60.8 °F 54% 30.21 in 10.0 mi SSW 11.5 mph 16.1 mph N/A   Clear
1:55 PM 80.6 °F 81.5 °F 60.8 °F 51% 30.20 in 10.0 mi SSW 13.8 mph 17.3 mph N/A   Clear
2:15 PM 80.6 °F 81.5 °F 60.8 °F 51% 30.19 in 10.0 mi SSW 9.2 mph 18.4 mph N/A   Clear
2:35 PM 80.6 °F 81.5 °F 60.8 °F 51% 30.18 in 10.0 mi SSW 11.5 mph - N/A   Clear
2:55 PM 82.4 °F 82.9 °F 60.8 °F 48% 30.17 in 10.0 mi South 11.5 mph 18.4 mph N/A   Clear
3:15 PM 82.4 °F 82.9 °F 60.8 °F 48% 30.16 in 10.0 mi South 11.5 mph 17.3 mph N/A   Partly Cloudy
3:35 PM 84.2 °F 84.4 °F 60.8 °F 45% 30.15 in 10.0 mi SSW 12.7 mph - N/A   Mostly Cloudy
3:55 PM 84.2 °F 84.4 °F 60.8 °F 45% 30.14 in 10.0 mi South 15.0 mph 18.4 mph N/A   Mostly Cloudy
4:15 PM 86.0 °F 86.6 °F 62.6 °F 45% 30.13 in 10.0 mi SSW 19.6 mph 24.2 mph N/A   Mostly Cloudy
4:35 PM 84.2 °F 84.4 °F 60.8 °F 45% 30.13 in 10.0 mi SSW 18.4 mph 25.3 mph N/A   Mostly Cloudy
4:55 PM 84.2 °F 84.4 °F 60.8 °F 45% 30.12 in 10.0 mi SSW 16.1 mph 23.0 mph N/A   Mostly Cloudy
5:15 PM 84.2 °F 84.4 °F 60.8 °F 45% 30.12 in 10.0 mi SSW 13.8 mph 19.6 mph N/A   Scattered Clouds
5:35 PM 84.2 °F 84.4 °F 60.8 °F 45% 30.11 in 10.0 mi South 16.1 mph 25.3 mph N/A   Partly Cloudy
5:55 PM 84.2 °F 84.4 °F 60.8 °F 45% 30.12 in 10.0 mi South 12.7 mph 17.3 mph N/A   Mostly Cloudy
6:15 PM 84.2 °F 83.5 °F 57.2 °F 40% 30.12 in 10.0 mi SW 16.1 mph 23.0 mph N/A   Mostly Cloudy
6:35 PM 84.2 °F 83.0 °F 55.4 °F 37% 30.12 in 10.0 mi WSW 15.0 mph - N/A   Scattered Clouds
6:55 PM 84.2 °F 83.0 °F 55.4 °F 37% 30.13 in 10.0 mi SW 13.8 mph - N/A   Scattered Clouds
7:15 PM 82.4 °F 81.7 °F 55.4 °F 39% 30.14 in 10.0 mi SW 13.8 mph - N/A   Mostly Cloudy
7:35 PM 80.6 °F 80.5 °F 55.4 °F 42% 30.14 in 10.0 mi SW 13.8 mph - N/A   Partly Cloudy
7:55 PM 78.8 °F - 55.4 °F 44% 30.16 in 10.0 mi WSW 8.1 mph - N/A   Scattered Clouds
8:15 PM 78.8 °F - 55.4 °F 44% 30.16 in 10.0 mi SW 6.9 mph - N/A   Overcast
8:35 PM 77.0 °F - 55.4 °F 47% 30.17 in 10.0 mi WSW 6.9 mph - N/A   Overcast
8:55 PM 75.2 °F - 57.2 °F 53% 30.17 in 10.0 mi SW 5.8 mph - N/A   Overcast
9:15 PM 75.2 °F - 57.2 °F 53% 30.17 in 10.0 mi WSW 5.8 mph - N/A   Overcast
9:35 PM 73.4 °F - 57.2 °F 57% 30.17 in 10.0 mi WSW 6.9 mph - N/A   Mostly Cloudy
9:55 PM 73.4 °F - 57.2 °F 57% 30.18 in 10.0 mi SW 5.8 mph - N/A   Scattered Clouds
10:15 PM 73.4 °F - 59.0 °F 61% 30.18 in 10.0 mi SSW 4.6 mph - N/A   Scattered Clouds
10:35 PM 73.4 °F - 60.8 °F 65% 30.18 in 10.0 mi South 3.5 mph - N/A   Mostly Cloudy
10:55 PM 73.4 °F - 60.8 °F 65% 30.19 in 10.0 mi East 5.8 mph - N/A   Mostly Cloudy
11:15 PM 71.6 °F - 62.6 °F 73% 30.19 in 10.0 mi SE 6.9 mph - N/A   Mostly Cloudy
11:35 PM 71.6 °F - 62.6 °F 73% 30.19 in 10.0 mi SSE 5.8 mph - N/A   Partly Cloudy
11:55 PM 71.6 °F - 62.6 °F 73% 30.19 in 10.0 mi SE 4.6 mph - N/A   Partly Cloudy